Home   Weather   19°22'N, 99°10'W   Past weeks
Flag for Mexico

Past Weather in 19°22'N, 99°10'W, Mexico — Yesterday and Last 2 Weeks

Now
66 °F

Passing clouds.


Feels Like: 66 °F
Forecast: 76 / 56 °F
Wind: 8 mph from West

Location: Mexico City / Licenci

Current Time: Apr 26, 2019 at 11:31:34 am

Latest Report: Apr 26, 2019 at 10:53 am


Visibility: 6 mi

Pressure: 30.39 "Hg

Humidity: 37%

Dew Point: 39 °F

Location of 19°22'N, 99°10'WLocation

Past Weather in 19°22'N, 99°10'W — Graph

°F

19°22'N, 99°10'W Temperature Yesterday

Maximum temperature yesterday: 84 °F (at 4:55 pm)
Minimum temperature yesterday: 55 °F (at 6:51 am)
Average temperature yesterday: 71 °F

High & Low Weather Summary for the Past Weeks

 TemperatureHumidityPressure
High86 °F (Apr 18, 2:44 pm)71% (Apr 15, 6:45 am)30.44 "Hg (Apr 15, 6:45 am)
Low48 °F (Apr 20, 6:51 am)5% (Apr 13, 6:48 pm)29.47 "Hg (Apr 13, 3:46 pm)
Average70 °F30%30.10 "Hg
* Reported Apr 11 9:45 am — Apr 26 9:54 am, 19°22'N, 99°10'W. Weather by CustomWeather, © 2019

Note: Actual official high and low records may vary slightly from our data, if they occured in-between our weather recording intervals... More about our weather records

Advertising

19°22'N, 99°10'W Weather History for the Previous 24 Hours

Scroll right to see more
 ConditionsComfort  
Time TempWeatherWind HumidityBarometerVisibility
9:54 am
Fri, Apr 26
66 °FScattered clouds.3 mph40%29.88 "Hg6 mi
8:48 am61 °FSunny.7 mph39%30.39 "Hg6 mi
7:45 am59 °FSunny.5 mph42%30.37 "Hg6 mi
6:50 am57 °FPassing clouds.5 mph59%29.80 "Hg6 mi
6:10 am55 °FPassing clouds.7 mph63%30.34 "Hg6 mi
5:41 am59 °FPassing clouds.5 mph59%30.33 "Hg6 mi
4:42 am61 °FPassing clouds.No wind52%30.33 "Hg6 mi
3:46 am63 °FPassing clouds.3 mph56%29.74 "Hg6 mi
2:45 am63 °FPassing clouds.10 mph56%30.35 "Hg6 mi
1:45 am64 °FPassing clouds.6 mph52%30.36 "Hg6 mi
12:43 am66 °FPassing clouds.8 mph49%29.75 "Hg6 mi
11:46 pm
Thu, Apr 25
68 °FPassing clouds.7 mph46%30.36 "Hg6 mi
10:40 pm70 °FPartly cloudy.12 mph46%30.34 "Hg7 mi
9:48 pm70 °FPassing clouds.17 mph46%29.75 "Hg8 mi
9:44 pm70 °FPassing clouds.14 mph46%30.32 "Hg8 mi
8:48 pm73 °FPassing clouds.16 mph36%30.27 "Hg8 mi
8:32 pm75 °FPassing clouds.12 mph24%30.25 "Hg8 mi
7:48 pm79 °FScattered clouds.12 mph21%30.23 "Hg8 mi
6:55 pm81 °FPartly sunny.9 mph20%29.66 "Hg7 mi
5:53 pm82 °FScattered clouds.9 mph17%30.18 "Hg7 mi
4:55 pm84 °FScattered clouds.9 mph14%30.18 "Hg7 mi
3:50 pm82 °FScattered clouds.12 mph14%29.57 "Hg7 mi
2:48 pm82 °FScattered clouds.5 mph12%30.21 "Hg7 mi
1:50 pm82 °FPartly sunny.6 mph12%30.24 "Hg7 mi
12:51 pm79 °FScattered clouds.6 mph12%29.65 "Hg7 mi
12:19 pm79 °FScattered clouds.5 mph15%30.27 "Hg7 mi
11:48 am75 °FPartly sunny.6 mph16%30.28 "Hg6 mi
11:40 am75 °FPartly sunny.5 mph18%30.28 "Hg6 mi
Weather by CustomWeather, © 2019

See weather overview